Location: Voyageurs National Park
(48.5020°N, 92.9292°W)
Time: 19:17:09
(UTC-05:00)

Amateur Radio Satellites - All Passes

Search period start: 28 August 2015 18:47
Search period end: 29 August 2015 18:47
Location: Voyageurs National Park, 48.5020°N, 92.9292°W

Satellite Date Start Highest point End Downlink Frequencies (MHz)
Time Altitude Azimuth
Cubesat XI-IV 28 Aug 18:47:17 18:52:36 70° 257° (WSW) 18:57:57 437.490
CUBESAT XI-V 28 Aug 18:50:37 18:54:51 35° 95° (E) 18:59:07 437.345
STRAND 1 28 Aug 18:51:43 18:52:59 11° 83° (E) 18:54:33 437.568
GOMX 1 28 Aug 19:07:05 19:10:29 22° 61° (ENE) 19:14:10 467.674
O/OREOS (USA 219) 28 Aug 19:07:50 19:09:26 12° 98° (E) 19:11:15 437.305
AIST 1 28 Aug 19:09:08 19:12:36 23° 68° (ENE) 19:16:07
RS-15 28 Aug 19:11:18 19:22:16 64° 319° (NW) 19:33:45 29.354- 29.394
PRISM 28 Aug 19:17:54 19:18:59 11° 86° (E) 19:20:18 437.425
SEEDS 28 Aug 19:25:47 19:27:05 11° 58° (ENE) 19:28:35 437.485
BEESAT 3 28 Aug 19:33:24 19:34:59 12° 340° (NNW) 19:36:30 437.485
CUTE-I 28 Aug 19:34:25 19:39:04 30° 266° (W) 19:43:41 437.470
DOVE 4 28 Aug 19:37:57 19:41:45 26° 63° (ENE) 19:45:50 437.250
BEESAT 2 28 Aug 19:39:38 19:41:30 13° 338° (NNW) 19:43:18 435.950
AIST 2 28 Aug 19:48:34 19:52:04 23° 326° (NW) 19:55:31 435.215
COMPASS 1 28 Aug 19:52:24 19:54:57 16° 62° (ENE) 19:57:37 437.405
BRITE-PL 28 Aug 19:56:34 20:00:54 89° 259° (WSW) 20:05:36 437.365/2234.400
AAUSAT CUBESAT 2 28 Aug 20:05:30 20:08:21 18° 63° (ENE) 20:11:17 437.432
CUTE 1.7 + AOD 2 28 Aug 20:16:53 20:20:53 40° 70° (ENE) 20:24:56 437.475
STRAND 1 28 Aug 20:28:03 20:33:11 77° 105° (ESE) 20:38:18 437.568
CUBESAT XI-V 28 Aug 20:28:09 20:32:14 31° 294° (WNW) 20:36:16 437.345
HO-68 28 Aug 20:29:57 20:37:05 77° 70° (ENE) 20:44:19 435.675
CANX-2 28 Aug 20:30:03 20:34:17 60° 73° (ENE) 20:38:32 2200.000
Cubesat XI-IV 28 Aug 20:32:47 20:33:50 10° 278° (W) 20:34:32 437.490
Cosmos 2491 28 Aug 20:42:08 20:50:51 66° 75° (ENE) 20:59:35 435.465 / 435.565
O/OREOS (USA 219) 28 Aug 20:43:39 20:48:12 88° 296° (WNW) 20:52:49 437.305
GOMX 1 28 Aug 20:43:53 20:48:15 53° 262° (W) 20:52:58 467.674
Oscar 11 28 Aug 20:45:08 20:48:29 23° 64° (ENE) 20:51:56 145.826/435.025
AIST 1 28 Aug 20:46:23 20:50:25 38° 267° (W) 20:54:24
CINEMA 3 28 Aug 20:48:55 20:53:27 54° 71° (ENE) 20:58:14 145.822/145.860
PRISM 28 Aug 20:50:56 20:55:02 79° 288° (WNW) 20:59:09 437.425
DELFI C3 28 Aug 20:55:10 20:57:53 18° 63° (ENE) 21:00:42 145.870
YUBILEINY 28 Aug 20:56:49 21:04:06 32° 83° (E) 21:11:38 435.215
SEEDS 28 Aug 20:57:58 21:02:14 84° 76° (ENE) 21:06:31 437.485
HUMSAT D 28 Aug 21:02:11 21:02:37 10° 56° (ENE) 21:03:17 437.325/437.525
CUBEBUG 2 28 Aug 21:03:35 21:07:50 37° 68° (ENE) 21:12:13 437.445
DOVE 4 28 Aug 21:14:56 21:19:18 43° 264° (W) 21:23:57 437.250
UWE-3 28 Aug 21:18:01 21:22:19 40° 68° (ENE) 21:26:42 435.000/436.395/437.385
ZACube-1 28 Aug 21:19:30 21:23:32 33° 67° (ENE) 21:27:40 437.345
COMPASS 1 28 Aug 21:25:59 21:30:11 63° 260° (W) 21:34:23 437.405
FUNcube-1 28 Aug 21:26:26 21:30:33 37° 68° (ENE) 21:34:48 145.935
RS-15 28 Aug 21:27:09 21:37:22 36° 351° (N) 21:48:00 29.354- 29.394
BRITE-PL 28 Aug 21:39:25 21:40:25 10° 278° (W) 21:41:10 437.365/2234.400
AAUSAT CUBESAT 2 28 Aug 21:39:28 21:43:36 53° 260° (W) 21:47:44 437.432
ESTCUBE 1 28 Aug 21:51:46 21:52:36 11° 56° (NE) 21:53:39 437.505/2401.250
CUTE 1.7 + AOD 2 28 Aug 21:53:28 21:56:58 23° 268° (W) 22:00:23 437.475
50 SAT 28 Aug 21:59:22 22:01:40 15° 62° (ENE) 22:04:05 437.505
DX 1 28 Aug 22:07:02 22:10:38 26° 64° (ENE) 22:14:18 434.975-435.025
CANX-2 28 Aug 22:07:53 22:10:38 16° 272° (W) 22:13:14 2200.000
STRAND 1 28 Aug 22:08:21 22:11:52 18° 302° (WNW) 22:15:14 437.568
AISAT 28 Aug 22:15:10 22:18:31 22° 63° (ENE) 22:21:58 437.250
HO-68 28 Aug 22:19:56 22:25:39 24° 271° (W) 22:31:12 435.675
Oscar 11 28 Aug 22:20:15 22:24:26 45° 262° (W) 22:28:38 145.826/435.025
UKube-1 28 Aug 22:24:51 22:28:44 35° 67° (ENE) 22:32:42 .
O/OREOS (USA 219) 28 Aug 22:25:33 22:28:24 16° 318° (NW) 22:31:10 437.305
CUBEBUG 1 28 Aug 22:27:16 22:30:05 18° 61° (ENE) 22:33:02 437.445
CINEMA 3 28 Aug 22:27:27 22:31:02 21° 271° (W) 22:34:38 145.822/145.860
DELFI C3 28 Aug 22:28:39 22:32:37 51° 260° (W) 22:36:36 145.870
PRISM 28 Aug 22:29:00 22:29:49 10° 303° (WNW) 22:30:27 437.425
HUMSAT D 28 Aug 22:33:18 22:37:36 71° 74° (ENE) 22:41:57 437.325/437.525
SEEDS 28 Aug 22:37:17 22:38:41 11° 275° (W) 22:39:52 437.485
Cosmos 2491 28 Aug 22:39:43 22:47:13 32° 277° (W) 22:54:31 435.465 / 435.565
CUBEBUG 2 28 Aug 22:40:30 22:44:35 29° 267° (W) 22:48:42 437.445
VELOX 1 28 Aug 22:43:36 22:47:39 37° 68° (ENE) 22:51:45 145.980
Cosmos 2504 28 Aug 22:45:01 22:50:31 21° 77° (ENE) 22:56:32 435.465 / 435.565
TIGRISAT 28 Aug 22:45:10 22:48:08 17° 88° (E) 22:51:12 435.000
YUBILEINY 28 Aug 22:51:37 23:00:23 68° 285° (WNW) 23:09:13 435.215
BEESAT 3 28 Aug 22:51:56 22:54:21 15° 27° (NNE) 22:56:49 437.485
UWE-3 28 Aug 22:55:02 22:58:57 27° 268° (W) 23:02:53 435.000/436.395/437.385
ZACube-1 28 Aug 22:55:46 22:59:52 32° 266° (W) 23:04:00 437.345
BEESAT 2 28 Aug 22:58:48 23:01:07 15° 26° (NNE) 23:03:30 435.950
ANTELSAT 28 Aug 23:00:14 23:03:58 24° 91° (E) 23:07:43 437.575/2403.000
FUNcube-1 28 Aug 23:02:59 23:06:57 29° 267° (W) 23:10:55 145.935
AUBIESAT-1 28 Aug 23:06:03 23:08:17 15° 92° (E) 23:10:35 437.475
M-CUBED/EXP-1 PRIME 28 Aug 23:07:30 23:10:22 18° 95° (E) 23:13:09 437.505
ESTCUBE 1 28 Aug 23:24:15 23:28:43 70° 73° (ENE) 23:33:12 437.505/2401.250
50 SAT 28 Aug 23:31:50 23:35:46 60° 259° (W) 23:39:43 437.505
RS-15 28 Aug 23:42:33 23:53:24 43° 24° (NNE) 00:04:46 29.354- 29.394
DX 1 28 Aug 23:42:42 23:46:44 37° 263° (W) 23:50:48 434.975-435.025
AISAT 28 Aug 23:50:33 23:54:49 47° 261° (W) 23:59:08 437.250
UNISAT 6 28 Aug 23:50:40 23:55:20 73° 101° (ESE) 23:59:52 437.425
TISAT 1 28 Aug 23:53:25 23:56:46 24° 65° (ENE) 00:00:14 437.305
UKube-1 29 Aug 00:01:14 00:04:56 27° 265° (W) 00:08:38 .
CUBEBUG 1 29 Aug 00:01:46 00:06:03 60° 259° (W) 00:10:21 437.445
POLYITAN 1 29 Aug 00:03:49 00:07:52 38° 97° (E) 00:11:55 437.675
POPSAT HIP 1 29 Aug 00:07:47 00:11:53 41° 98° (E) 00:15:58 437.405
SPROUT 29 Aug 00:10:36 00:14:48 56° 72° (ENE) 00:19:03 437.525
DUCHIFAT 1 29 Aug 00:11:22 00:15:29 43° 98° (E) 00:19:35 145.980
HUMSAT D 29 Aug 00:11:34 00:13:53 14° 273° (W) 00:16:02 437.325/437.525
VELOX 1 29 Aug 00:20:34 00:24:18 26° 267° (W) 00:28:00 145.980
TIGRISAT 29 Aug 00:20:46 00:25:22 62° 288° (WNW) 00:29:50 435.000
QB50P2 29 Aug 00:23:45 00:28:03 62° 101° (E) 00:32:19 145.880/145.840
NANOSAT C BR1 29 Aug 00:27:31 00:31:48 65° 101° (ESE) 00:36:03 145.865
BEESAT 3 29 Aug 00:29:02 00:33:04 64° 49° (NE) 00:37:03 437.485
Cosmos 2504 29 Aug 00:33:26 00:41:34 86° 98° (E) 00:50:13 435.465 / 435.565
BUGSAT 1 29 Aug 00:34:03 00:38:10 47° 99° (E) 00:42:18 437.445
BEESAT 2 29 Aug 00:35:58 00:40:02 58° 48° (NE) 00:44:00 435.950
ANTELSAT 29 Aug 00:36:33 00:40:58 43° 291° (WNW) 00:45:15 437.575/2403.000
AUBIESAT-1 29 Aug 00:39:25 00:43:32 59° 294° (WNW) 00:47:19 437.475
QB50P1 29 Aug 00:39:42 00:44:03 87° 108° (ESE) 00:48:20 145.935-145.965
M-CUBED/EXP-1 PRIME 29 Aug 00:41:24 00:45:31 49° 296° (WNW) 00:49:17 437.505
BEESAT 29 Aug 00:44:00 00:47:11 19° 60° (ENE) 00:50:32 436.000
AIST 2 29 Aug 00:49:05 00:52:36 25° 36° (NE) 00:56:07 435.215
CUSAT 1 29 Aug 00:49:09 00:52:45 43° 93° (E) 00:57:33 437.405
DANDE 29 Aug 00:53:18 00:56:12 26° 88° (E) 00:59:53 436.750
YUBILEINY 29 Aug 00:53:32 00:59:22 18° 310° (NW) 01:04:53 435.215
ESTCUBE 1 29 Aug 01:03:33 01:06:08 15° 273° (W) 01:08:33 437.505/2401.250
SWISSCUBE 29 Aug 01:08:17 01:12:25 31° 65° (ENE) 01:16:38 437.505
TISAT 1 29 Aug 01:28:24 01:32:21 39° 263° (W) 01:36:21 437.305
UNISAT 6 29 Aug 01:28:35 01:31:35 17° 301° (WNW) 01:34:25 437.425
Oscar 19 29 Aug 01:36:16 01:39:47 19° 88° (E) 01:43:27 437.125/150
POLYITAN 1 29 Aug 01:40:01 01:43:37 25° 295° (WNW) 01:47:08 437.675
SO-50 29 Aug 01:40:47 01:43:59 18° 112° (ESE) 01:47:23 436.795
POPSAT HIP 1 29 Aug 01:44:03 01:47:34 24° 295° (WNW) 01:50:59 437.405
ITUPSAT 1 29 Aug 01:44:28 01:49:10 58° 70° (ENE) 01:53:52 437.325
GONETS M04 29 Aug 01:47:27 01:51:31 15° 73° (ENE) 01:56:06
DUCHIFAT 1 29 Aug 01:47:38 01:51:03 23° 296° (WNW) 01:54:23 145.980
SPROUT 29 Aug 01:48:24 01:51:17 17° 271° (W) 01:54:03 437.525
RS-15 29 Aug 01:55:40 02:07:28 90° 52° (NE) 02:19:44 29.354- 29.394
QB50P2 29 Aug 02:00:38 02:03:31 17° 299° (WNW) 02:06:16 145.880/145.840
NANOSAT C BR1 29 Aug 02:04:25 02:07:11 17° 299° (WNW) 02:09:50 145.865
BEESAT 3 29 Aug 02:07:56 02:10:35 17° 247° (WSW) 02:13:05 437.485
BUGSAT 1 29 Aug 02:10:08 02:13:21 21° 297° (WNW) 02:16:30 437.445
PCSat 29 Aug 02:11:15 02:14:47 18° 107° (ESE) 02:18:30 145.827
BEESAT 2 29 Aug 02:14:48 02:17:42 19° 246° (WSW) 02:20:28 435.950
QB50P1 29 Aug 02:17:15 02:19:19 13° 301° (WNW) 02:21:11 145.935-145.965
BEESAT 29 Aug 02:19:49 02:24:35 68° 258° (WSW) 02:29:22 436.000
AIST 2 29 Aug 02:27:20 02:31:28 57° 237° (WSW) 02:35:31 435.215
Cosmos 2504 29 Aug 02:28:20 02:35:04 26° 302° (WNW) 02:41:51 435.465 / 435.565
ITAMSAT 1 29 Aug 02:28:25 02:31:03 14° 86° (E) 02:33:57 435.822/435.867
CUSAT 1 29 Aug 02:32:33 02:35:48 21° 302° (WNW) 02:39:41 437.405
DANDE 29 Aug 02:36:16 02:39:20 25° 298° (WNW) 02:43:06 436.750
STARS 29 Aug 02:37:46 02:41:13 23° 63° (ENE) 02:44:47 437.465
SWISSCUBE 29 Aug 02:45:47 02:50:13 37° 263° (W) 02:54:38 437.505
KKS-1 29 Aug 02:47:11 02:51:24 43° 69° (ENE) 02:55:41 437.445
Cosmos 2499 29 Aug 03:01:10 03:02:33 11° 68° (ENE) 03:04:36 435.465 / 435.565
Oscar 19 29 Aug 03:14:31 03:19:44 69° 288° (WNW) 03:24:53 437.125/150
SO-50 29 Aug 03:19:09 03:24:00 77° 311° (NW) 03:28:59 436.795
ITUPSAT 1 29 Aug 03:23:56 03:27:27 20° 270° (W) 03:30:52 437.325
AO-7 29 Aug 03:27:34 03:31:25 14° 81° (E) 03:35:49 29.400- 29.500
Gurwin Techsat 1B 29 Aug 03:29:15 03:34:30 57° 100° (E) 03:39:44 435.225
GONETS M04 29 Aug 03:38:16 03:46:47 67° 94° (E) 03:55:27
JAS-2 29 Aug 03:50:53 03:57:56 48° 95° (E) 04:04:14 435.910
PCSat 29 Aug 03:52:12 03:57:37 81° 304° (NW) 04:03:06 145.827
ITAMSAT 1 29 Aug 04:06:09 04:11:22 87° 287° (WNW) 04:16:34 435.822/435.867
RS-15 29 Aug 04:08:59 04:18:48 31° 255° (WSW) 04:28:28 29.354- 29.394
MOZHAYETS 4 29 Aug 04:12:32 04:16:57 48° 71° (ENE) 04:21:25
STARS 29 Aug 04:13:12 04:17:26 44° 261° (W) 04:21:43 437.465
KKS-1 29 Aug 04:24:39 04:28:15 23° 268° (W) 04:31:47 437.445
Cosmos 2499 29 Aug 04:45:40 04:53:41 51° 89° (E) 05:02:10 435.465 / 435.565
Oscar 19 29 Aug 04:55:53 04:58:14 13° 307° (NW) 05:00:24 437.125/150
SO-50 29 Aug 05:01:33 05:05:21 22° 333° (NNW) 05:09:10 436.795
Gurwin Techsat 1B 29 Aug 05:09:51 05:14:10 25° 299° (WNW) 05:18:22 435.225
O/OREOS (USA 219) 29 Aug 05:10:46 05:15:13 46° 57° (ENE) 05:19:40 437.305
AO-7 29 Aug 05:17:51 05:26:07 66° 104° (ESE) 05:34:22 29.400- 29.500
HORYU 2 29 Aug 05:21:50 05:26:20 78° 103° (ESE) 05:30:48 437.375
JAS-2 29 Aug 05:36:04 05:42:54 41° 298° (WNW) 05:48:59 435.910
GONETS M04 29 Aug 05:36:42 05:44:25 33° 298° (WNW) 05:52:03
PCSat 29 Aug 05:37:44 05:41:56 22° 328° (NNW) 05:46:03 145.827
ITAMSAT 1 29 Aug 05:47:06 05:50:12 16° 304° (NW) 05:53:08 435.822/435.867
MOZHAYETS 4 29 Aug 05:50:48 05:54:27 22° 269° (W) 05:58:01
CUBESAT XI-V 29 Aug 05:57:30 06:01:58 52° 71° (ENE) 06:06:26 437.345
CUTE-I 29 Aug 06:08:45 06:10:50 13° 84° (E) 06:13:13 437.470
STRAND 1 29 Aug 06:09:54 06:14:01 26° 62° (ENE) 06:18:13 437.568
PRISM 29 Aug 06:11:02 06:13:23 15° 61° (ENE) 06:15:52 437.425
Cosmos 2499 29 Aug 06:38:59 06:47:05 45° 292° (WNW) 06:55:28 435.465 / 435.565
SO-50 29 Aug 06:45:35 06:47:42 12° 357° (N) 06:49:49 436.795
O/OREOS (USA 219) 29 Aug 06:50:42 06:54:26 24° 256° (WSW) 06:58:05 437.305
HORYU 2 29 Aug 06:59:47 07:02:26 15° 301° (WNW) 07:04:57 437.375
Cubesat XI-IV 29 Aug 07:00:49 07:05:40 35° 95° (E) 07:10:32 437.490
YUBILEINY 29 Aug 07:01:06 07:07:13 21° 52° (NE) 07:13:37 435.215
VERMONT LUNAR 29 Aug 07:07:31 07:09:35 17° 174° (S) 07:11:38 437.305
AO-7 29 Aug 07:11:09 07:18:34 37° 306° (NW) 07:25:49 29.400- 29.500
JAS-2 29 Aug 07:23:55 07:26:01 11° 320° (NW) 07:27:43 435.910
PCSat 29 Aug 07:26:03 07:27:30 11° 354° (N) 07:28:55 145.827
CUBESAT XI-V 29 Aug 07:36:16 07:39:44 20° 270° (W) 07:43:06 437.345
PRISM 29 Aug 07:44:18 07:48:23 65° 258° (WSW) 07:52:29 437.425
AIST 1 29 Aug 07:45:23 07:46:22 11° 83° (E) 07:47:35
CUTE-I 29 Aug 07:46:32 07:51:53 82° 104° (ESE) 07:57:14 437.470
STRAND 1 29 Aug 07:48:00 07:52:59 51° 261° (W) 07:57:58 437.568
BRITE-PL 29 Aug 07:56:54 08:01:22 27° 91° (E) 08:06:06 437.365/2234.400
Cosmos 2491 29 Aug 07:56:57 08:00:55 15° 73° (ENE) 08:05:25 435.465 / 435.565
HO-68 29 Aug 07:57:31 07:58:33 10° 79° (ENE) 08:00:09 435.675
SO-50 29 Aug 08:26:55 08:30:12 17° 21° (NNE) 08:33:30 436.795
Cosmos 2504 29 Aug 08:27:45 08:28:08 10° 38° (NE) 08:29:02 435.465 / 435.565
PHONESAT 2.4 29 Aug 08:29:44 08:31:53 16° 165° (SSE) 08:34:03 2401.200-2431.200
Cosmos 2499 29 Aug 08:39:56 08:43:20 12° 320° (NW) 08:46:17 435.465 / 435.565
Cubesat XI-IV 29 Aug 08:40:54 08:45:50 38° 294° (WNW) 08:50:42 437.490
SEEDS 29 Aug 08:40:57 08:41:52 11° 85° (E) 08:43:02 437.485
GOMX 1 29 Aug 08:41:08 08:46:08 39° 95° (E) 08:51:17 467.674
CINEMA 3 29 Aug 08:42:13 08:43:45 11° 82° (E) 08:45:33 145.822/145.860
VERMONT LUNAR 29 Aug 08:43:32 08:45:25 15° 190° (S) 08:47:17 437.305
YUBILEINY 29 Aug 08:57:01 09:05:55 76° 78° (ENE) 09:14:45 435.215
AO-7 29 Aug 09:06:02 09:09:03 12° 330° (NNW) 09:11:48 29.400- 29.500
COMPASS 1 29 Aug 09:06:36 09:09:08 16° 89° (E) 09:11:48 437.405
DOVE 4 29 Aug 09:09:27 09:14:29 43° 96° (E) 09:19:34 437.250
PCSat 29 Aug 09:10:34 09:13:22 14° 20° (NNE) 09:16:16 145.827
UNISAT 6 29 Aug 09:18:41 09:21:19 15° 59° (ENE) 09:24:08 437.425
AIST 1 29 Aug 09:19:10 09:23:25 81° 280° (W) 09:27:42
AAUSAT CUBESAT 2 29 Aug 09:19:16 09:22:07 18° 90° (E) 09:25:04 437.432
CUTE-I 29 Aug 09:27:45 09:31:24 19° 303° (WNW) 09:34:53 437.470
CUTE 1.7 + AOD 2 29 Aug 09:33:49 09:37:55 46° 98° (E) 09:41:59 437.475
BRITE-PL 29 Aug 09:34:55 09:40:08 54° 289° (WNW) 09:45:35 437.365/2234.400
CUSAT 1 29 Aug 09:37:34 09:41:42 16° 53° (NE) 09:46:28 437.405
HO-68 29 Aug 09:41:03 09:48:08 57° 101° (E) 09:55:13 435.675
DANDE 29 Aug 09:44:35 09:47:09 12° 51° (NE) 09:50:18 436.750
TIGRISAT 29 Aug 09:47:06 09:50:53 25° 64° (ENE) 09:54:46 435.000
CANX-2 29 Aug 09:47:16 09:51:32 71° 102° (ESE) 09:55:44 2200.000
Cosmos 2491 29 Aug 09:47:39 09:56:13 66° 94° (E) 10:04:50 435.465 / 435.565
QB50P2 29 Aug 09:48:14 09:49:03 11° 57° (ENE) 09:50:04 145.880/145.840
NANOSAT C BR1 29 Aug 09:51:28 09:52:26 11° 57° (ENE) 09:53:35 145.865
AUBIESAT-1 29 Aug 09:54:56 09:59:23 41° 63° (ENE) 10:03:47 437.475
M-CUBED/EXP-1 PRIME 29 Aug 09:57:07 10:01:44 50° 65° (ENE) 10:06:20 437.505
ANTELSAT 29 Aug 10:02:24 10:06:37 35° 67° (ENE) 10:10:55 437.575/2403.000
QB50P1 29 Aug 10:02:32 10:04:42 14° 59° (ENE) 10:07:00 145.935-145.965
Oscar 11 29 Aug 10:03:59 10:07:33 25° 93° (E) 10:11:09 145.826/435.025
DELFI C3 29 Aug 10:04:41 10:07:10 16° 89° (E) 10:09:44 145.870
PHONESAT 2.4 29 Aug 10:06:28 10:09:08 21° 182° (S) 10:11:48 2401.200-2431.200
SO-50 29 Aug 10:07:02 10:11:53 50° 43° (NE) 10:16:40 436.795
SEEDS 29 Aug 10:14:08 10:18:21 84° 285° (WNW) 10:22:32 437.485
Cosmos 2504 29 Aug 10:15:41 10:23:36 39° 66° (ENE) 10:31:17 435.465 / 435.565
CINEMA 3 29 Aug 10:16:47 10:21:52 79° 102° (ESE) 10:26:51 145.822/145.860
GOMX 1 29 Aug 10:19:18 10:24:13 37° 293° (WNW) 10:29:11 467.674
CUBEBUG 2 29 Aug 10:27:07 10:31:43 49° 98° (E) 10:36:14 437.445
ZACube-1 29 Aug 10:40:11 10:44:28 39° 96° (E) 10:48:40 437.345
UWE-3 29 Aug 10:40:18 10:44:51 51° 99° (E) 10:49:18 435.000/436.395/437.385
COMPASS 1 29 Aug 10:41:06 10:45:12 55° 287° (WNW) 10:49:14 437.405
ISS 29 Aug 10:44:40 10:47:31 29° 145° (SE) 10:50:24 145.825
FUNcube-1 29 Aug 10:46:54 10:51:16 44° 97° (E) 10:55:32 145.935
DOVE 4 29 Aug 10:47:25 10:52:06 32° 294° (WNW) 10:56:45 437.250
UNISAT 6 29 Aug 10:52:48 10:57:30 84° 258° (WSW) 11:02:15 437.425
PCSat 29 Aug 10:53:18 10:58:23 39° 44° (NE) 11:03:28 145.827
AAUSAT CUBESAT 2 29 Aug 10:54:00 10:58:00 47° 289° (WNW) 11:01:58 437.432
YUBILEINY 29 Aug 10:54:49 11:01:59 28° 279° (W) 11:08:52 435.215
POLYITAN 1 29 Aug 11:00:10 11:04:15 47° 70° (ENE) 11:08:25 437.675
POPSAT HIP 1 29 Aug 11:03:56 11:08:02 50° 71° (ENE) 11:12:13 437.405
50 SAT 29 Aug 11:05:01 11:06:22 12° 87° (E) 11:07:54 437.505
DUCHIFAT 1 29 Aug 11:07:02 11:11:08 52° 71° (ENE) 11:15:19 145.980
CUTE 1.7 + AOD 2 29 Aug 11:10:20 11:13:33 21° 296° (WNW) 11:16:41 437.475
ESTCUBE 1 29 Aug 11:15:24 11:16:38 11° 85° (E) 11:18:08 437.505/2401.250
BRITE-PL 29 Aug 11:16:35 11:17:43 10° 306° (NW) 11:18:35 437.365/2234.400
CUSAT 1 29 Aug 11:18:28 11:25:40 61° 74° (ENE) 11:33:49 437.405
QB50P2 29 Aug 11:19:58 11:24:14 76° 74° (ENE) 11:28:32 145.880/145.840
TIGRISAT 29 Aug 11:22:54 11:27:24 46° 262° (W) 11:31:57 435.000
NANOSAT C BR1 29 Aug 11:23:20 11:27:34 78° 75° (ENE) 11:31:51 145.865
CANX-2 29 Aug 11:24:30 11:26:57 15° 300° (WNW) 11:29:16 2200.000
DANDE 29 Aug 11:25:09 11:31:50 50° 72° (ENE) 11:39:51 436.750
DX 1 29 Aug 11:27:05 11:30:51 28° 95° (E) 11:34:38 434.975-435.025
BUGSAT 1 29 Aug 11:27:33 11:31:30 53° 72° (ENE) 11:35:33 437.445
HO-68 29 Aug 11:29:10 11:35:39 36° 301° (WNW) 11:42:00 435.675
AUBIESAT-1 29 Aug 11:29:59 11:34:09 29° 261° (W) 11:38:14 437.475
M-CUBED/EXP-1 PRIME 29 Aug 11:32:43 11:36:42 25° 262° (W) 11:40:35 437.505
QB50P1 29 Aug 11:35:45 11:40:00 78° 256° (WSW) 11:44:19 145.935-145.965
AISAT 29 Aug 11:37:31 11:41:11 25° 93° (E) 11:44:54 437.250
DELFI C3 29 Aug 11:38:39 11:42:34 51° 288° (WNW) 11:46:25 145.870
ANTELSAT 29 Aug 11:39:11 11:43:24 32° 266° (W) 11:47:38 437.575/2403.000
Oscar 11 29 Aug 11:39:50 11:43:51 37° 292° (WNW) 11:47:49 145.826/435.025
UKube-1 29 Aug 11:44:07 11:48:08 36° 97° (E) 11:52:10 .
PHONESAT 2.4 29 Aug 11:44:30 11:46:21 14° 198° (SSW) 11:48:10 2401.200-2431.200
Cosmos 2491 29 Aug 11:46:03 11:53:50 34° 297° (WNW) 12:01:29 435.465 / 435.565
CUBEBUG 1 29 Aug 11:47:23 11:50:32 19° 90° (E) 11:53:47 437.445
SO-50 29 Aug 11:47:55 11:52:15 30° 243° (WSW) 11:56:27 436.795
HUMSAT D 29 Aug 11:49:08 11:53:27 80° 103° (ESE) 11:57:40 437.325/437.525
GONETS M04 29 Aug 11:50:17 11:51:40 11° 38° (NE) 11:53:34
SEEDS 29 Aug 11:52:09 11:53:29 11° 302° (WNW) 11:54:38 437.485
CINEMA 3 29 Aug 11:55:07 11:58:29 18° 301° (WNW) 12:01:41 145.822/145.860
CUBEBUG 2 29 Aug 12:04:17 12:08:08 24° 297° (WNW) 12:11:48 437.445
VELOX 1 29 Aug 12:06:13 12:10:30 44° 99° (E) 12:14:47 145.980
Cosmos 2504 29 Aug 12:07:53 12:16:15 57° 269° (W) 12:24:09 435.465 / 435.565
ZACube-1 29 Aug 12:16:48 12:20:40 27° 295° (WNW) 12:24:24 437.345
UWE-3 29 Aug 12:17:25 12:21:03 22° 297° (WNW) 12:24:32 435.000/436.395/437.385
ISS 29 Aug 12:20:30 12:23:45 70° 343° (NNW) 12:27:00 145.825
FUNcube-1 29 Aug 12:23:40 12:27:22 24° 296° (WNW) 12:30:54 145.935
JAS-2 29 Aug 12:27:33 12:29:19 11° 40° (NE) 12:31:28 435.910
UNISAT 6 29 Aug 12:33:37 12:35:07 11° 276° (W) 12:36:22 437.425
PCSat 29 Aug 12:36:45 12:41:54 44° 244° (WSW) 12:47:00 145.827
POLYITAN 1 29 Aug 12:37:13 12:40:26 20° 269° (W) 12:43:34 437.675
50 SAT 29 Aug 12:37:32 12:41:26 68° 286° (WNW) 12:45:15 437.505
POPSAT HIP 1 29 Aug 12:41:09 12:44:14 19° 270° (W) 12:47:12 437.405
DUCHIFAT 1 29 Aug 12:44:19 12:47:18 18° 270° (W) 12:50:10 145.980
AO-7 29 Aug 12:44:23 12:46:31 11° 28° (NNE) 12:48:58 29.400- 29.500
ESTCUBE 1 29 Aug 12:49:44 12:54:16 90° 280° (W) 12:58:47 437.505/2401.250
Oscar 19 29 Aug 12:56:24 13:01:08 39° 66° (ENE) 13:05:58 437.125/150
QB50P2 29 Aug 12:58:46 13:00:44 13° 274° (W) 13:02:30 145.880/145.840
CUSAT 1 29 Aug 13:01:23 13:08:03 36° 270° (W) 13:15:14 437.405
NANOSAT C BR1 29 Aug 13:02:14 13:04:01 12° 274° (W) 13:05:37 145.865
DX 1 29 Aug 13:03:08 13:07:09 35° 293° (WNW) 13:11:07 434.975-435.025
BUGSAT 1 29 Aug 13:04:43 13:07:22 16° 271° (W) 13:09:54 437.445
DANDE 29 Aug 13:08:22 13:14:59 43° 267° (W) 13:22:38 436.750
TISAT 1 29 Aug 13:09:03 13:12:33 25° 93° (E) 13:16:07 437.305
AISAT 29 Aug 13:13:41 13:17:55 41° 291° (WNW) 13:22:06 437.250
Gurwin Techsat 1B 29 Aug 13:16:03 13:20:00 22° 60° (ENE) 13:24:04 435.225
UKube-1 29 Aug 13:20:28 13:24:09 27° 295° (WNW) 13:27:47 .
CUBEBUG 1 29 Aug 13:22:55 13:27:12 51° 289° (WNW) 13:31:29 437.445
HUMSAT D 29 Aug 13:26:24 13:28:36 14° 301° (WNW) 13:30:39 437.325/437.525
SPROUT 29 Aug 13:29:11 13:33:33 66° 102° (ESE) 13:37:51 437.525
VELOX 1 29 Aug 13:43:13 13:46:49 24° 296° (WNW) 13:50:21 145.980
GONETS M04 29 Aug 13:43:40 13:51:50 42° 67° (ENE) 14:00:07
ITUPSAT 1 29 Aug 13:43:46 13:44:52 11° 84° (E) 13:46:15 437.325
ITAMSAT 1 29 Aug 13:49:23 13:53:55 33° 64° (ENE) 13:58:33 435.822/435.867
ISS 29 Aug 13:57:15 14:00:24 46° 3° (N) 14:03:34 145.825
Cosmos 2504 29 Aug 14:03:23 14:06:39 12° 290° (WNW) 14:09:18 435.465 / 435.565
JAS-2 29 Aug 14:05:29 14:12:22 38° 61° (ENE) 14:19:27 435.910
BEESAT 29 Aug 14:16:44 14:20:29 23° 92° (E) 14:24:19 436.000
ESTCUBE 1 29 Aug 14:28:18 14:30:31 13° 302° (WNW) 14:32:34 437.505/2401.250
AO-7 29 Aug 14:29:46 14:36:54 34° 53° (NE) 14:44:08 29.400- 29.500
Cosmos 2499 29 Aug 14:32:34 14:39:30 26° 57° (ENE) 14:46:24 435.465 / 435.565
Oscar 19 29 Aug 14:35:54 14:40:35 33° 265° (W) 14:45:14 437.125/150
SWISSCUBE 29 Aug 14:41:48 14:46:19 42° 98° (E) 14:50:50 437.505
TISAT 1 29 Aug 14:44:27 14:48:26 37° 292° (WNW) 14:52:22 437.305
HORYU 2 29 Aug 14:49:07 14:51:50 16° 59° (ENE) 14:54:42 437.375
Gurwin Techsat 1B 29 Aug 14:54:17 14:59:34 66° 258° (WSW) 15:04:53 435.225
SPROUT 29 Aug 15:06:23 15:09:11 17° 299° (WNW) 15:11:50 437.525
ITUPSAT 1 29 Aug 15:18:50 15:23:38 82° 104° (ESE) 15:28:24 437.325
ITAMSAT 1 29 Aug 15:28:31 15:33:22 40° 263° (W) 15:38:14 435.822/435.867
ISS 29 Aug 15:33:43 15:37:00 87° 193° (SSW) 15:40:15 145.825
GONETS M04 29 Aug 15:40:33 15:49:02 54° 270° (W) 15:57:28
JAS-2 29 Aug 15:49:29 15:57:04 61° 261° (W) 16:04:53 435.910
BEESAT 29 Aug 15:54:00 15:58:37 48° 291° (WNW) 16:03:10 436.000
STARS 29 Aug 15:59:13 16:02:55 25° 93° (E) 16:06:39 437.465
BEESAT 3 29 Aug 16:02:24 16:06:02 33° 119° (ESE) 16:09:44 437.485
BEESAT 2 29 Aug 16:10:32 16:14:07 30° 118° (ESE) 16:17:47 435.950
KKS-1 29 Aug 16:10:41 16:15:05 52° 100° (E) 16:19:30 437.445
SWISSCUBE 29 Aug 16:19:58 16:24:01 28° 296° (WNW) 16:28:00 437.505
AO-7 29 Aug 16:20:49 16:29:11 73° 254° (WSW) 16:37:33 29.400- 29.500
HORYU 2 29 Aug 16:23:28 16:27:58 73° 257° (WSW) 16:32:30 437.375
RS-15 29 Aug 16:24:49 16:34:22 38° 109° (ESE) 16:44:28 29.354- 29.394
Cosmos 2499 29 Aug 16:25:11 16:34:04 88° 262° (W) 16:42:23 435.465 / 435.565
AIST 2 29 Aug 16:31:02 16:32:33 12° 111° (ESE) 16:34:16 435.215
Cubesat XI-IV 29 Aug 16:49:37 16:52:30 15° 55° (NE) 16:55:35 437.490
ITUPSAT 1 29 Aug 16:58:03 17:00:57 16° 302° (WNW) 17:03:43 437.325
ISS 29 Aug 17:10:39 17:13:03 19° 220° (SW) 17:15:23 145.825
CUTE-I 29 Aug 17:33:17 17:37:52 31° 64° (ENE) 17:42:33 437.470
STARS 29 Aug 17:35:18 17:39:29 39° 292° (WNW) 17:43:37 437.465
JAS-2 29 Aug 17:40:06 17:43:55 13° 283° (WNW) 17:47:14 435.910
BEESAT 3 29 Aug 17:40:08 17:43:56 36° 318° (NW) 17:47:44 437.485
MOZHAYETS 4 29 Aug 17:40:40 17:45:15 68° 101° (E) 17:49:47
GONETS M04 29 Aug 17:41:32 17:43:58 11° 291° (WNW) 17:45:46
KKS-1 29 Aug 17:47:59 17:51:25 21° 298° (WNW) 17:54:45 437.445
BEESAT 2 29 Aug 17:48:13 17:52:05 38° 317° (NW) 17:55:58 435.950
Cosmos 2491 29 Aug 18:00:13 18:01:05 10° 38° (NE) 18:02:27 435.465 / 435.565
AIST 2 29 Aug 18:06:15 18:10:31 87° 127° (SE) 18:14:48 435.215
AO-7 29 Aug 18:18:29 18:23:41 17° 277° (W) 18:28:24 29.400- 29.500
Cosmos 2499 29 Aug 18:19:45 18:26:05 22° 283° (WNW) 18:31:52 435.465 / 435.565
Cubesat XI-IV 29 Aug 18:26:33 18:31:53 81° 74° (ENE) 18:37:15 437.490
HO-68 29 Aug 18:29:40 18:33:44 17° 46° (NE) 18:38:04 435.675
